Probability
0 0 3 3 0 0 0 0 3 6 3 6 10 10 6 6 6 6 10 10 13 13 13 13 13 13 13 10 6 6 6 6 6 10 6 3 3 3 3 3 3 3 3
3 3 3 3 0 0 0 0 3 6 6 6 13 10 10 6 6 6 6 6 10 13 13 16 13 10 16 13 10 6 6 6 6 13 13 10 10 6 6 6 3 3 6
3 13 6 6 3 3 3 0 3 10 13 13 6 6 10 13 6 6 6 6 6 13 19 19 16 13 16 10 16 13 13 10 10 10 13 10 6 6 6 6 6 6 3
3 10 16 16 16 10 10 10 10 13 10 10 10 10 10 10 10 10 13 13 10 13 16 16 16 13 13 13 10 13 13 13 13 10 13 13 10 10 6 6 6 6 6
3 10 10 16 16 16 16 13 16 10 10 10 10 10 10 6 6 10 6 6 13 13 13 16 16 10 6 0 6 13 13 13 13 13 10 10 13 13 10 6 6 6 6
6 10 10 13 16 16 16 16 13 13 13 13 13 13 10 10 6 3 3 10 13 13 13 13 6 6 3 0 0 0 3 10 13 13 13 13 13 13 10 6 6 6 6
6 10 10 10 10 19 19 13 13 13 13 13 10 10 10 10 3 3 3 3 10 10 10 10 6 3 3 3 3 0 0 0 0 6 6 6 6 6 6 6 6 6 6
10 10 10 6 13 10 13 16 13 10 10 10 10 10 6 6 0 3 3 3 6 10 10 10 6 3 3 3 3 3 3 3 3 3 6 6 6 6 6 6 6 6 6
10 10 10 10 10 10 13 13 10 6 6 6 6 6 6 6 0 0 0 3 3 3 6 3 3 3 3 3 3 3 3 3 0 0 0 0 0 0 6 6 6 6 6
10 13 16 10 10 10 6 10 10 6 6 6 6 6 0 0 0 0 0 0 0 0 0 0 0 0 0 0 3 3 3 3 0 0 0 0 0 0 0 6 6 6 6
10 6 6 3 10 10 6 6 10 6 6 3 3 0 0 0 0 0 0 0 0 0 0 0 0 0 0 0 0 0 0 0 0 0 0 0 0 0 0 3 6 6 6
3 6 6 6 10 10 10 10 10 6 3 3 0 0 0 0 0 0 0 0 0 0 0 0 0 0 0 0 0 0 0 0 0 0 0 0 0 0 0 0 3 6 6
3 3 3 3 3 6 6 10 3 6 3 3 0 0 0 0 0 0 0 0 0 0 0 0 0 0 0 0 0 0 0 0 0 0 0 0 0 0 0 0 3 3 3
0 3 3 3 0 0 0 0 3 6 6 3 0 0 0 0 0 0 0 0 0 0 0 0 0 0 0 0 0 0 0 0 0 0 0 0 0 0 0 0 0 3 3
0 3 3 0 0 0 0 0 0 0 3 0 0 0 0 0 0 0 0 0 0 0 0 0 0 0 0 0 0 0 0 0 0 0 0 0 0 0 0 0 0 0 0
3 0 0 0 0 0 0 0 0 0 0 0 0 0 0 0 0 0 0 0 0 0 0 0 0 0 0 0 0 0 0 0 0 0 0 0 0 0 0 0 0 0 0
0 0 0 0 0 0 0 0 0 0 0 0 0 0 0 0 0 0 0 0 0 0 0 0 0 0 0 0 0 0 0 0 0 0 0 0 0 0 0 0 0 0 0
0 0 0 0 0 0 0 0 0 0 0 0 0 0 0 0 0 0 0 0 0 0 0 0 0 0 0 0 0 0 0 0 0 0 0 0 0 0 0 0 0 0 0
0 0 0 0 0 0 0 0 0 0 3 0 0 0 0 0 0 0 0 0 0 0 0 0 0 0 0 0 0 0 0 0 0 0 0 0 0 0 0 0 0 0 0
0 0 0 0 0 0 0 0 0 3 3 0 0 0 0 0 0 0 0 0 0 0 0 0 0 0 0 0 0 0 0 0 0 0 0 0 0 0 0 0 0 0 0
0 0 0 0 0 0 0 0 3 3 3 0 0 0 0 0 0 0 0 0 0 0 0 0 0 0 0 0 0 0 0 0 0 0 0 0 0 0 0 0 0 0 0
0 0 0 0 0 0 0 3 3 3 3 3 0 0 0 0 0 0 0 0 0 0 0 0 0 0 0 0 0 0 0 0 0 0 0 0 0 0 0 0 0 0 0
0 0 0 0 0 0 0 3 3 3 3 3 0 0 0 0 0 0 0 0 0 0 0 0 0 0 0 0 0 0 0 0 0 0 0 0 0 0 0 0 0 0 0
0 0 0 0 3 3 3 3 3 3 3 3 3 0 0 0 0 0 0 0 0 0 0 0 0 0 0 0 0 0 0 0 0 0 0 0 0 0 0 0 0 0 0
0 0 0 3 3 3 3 3 3 3 3 3 3 3 3 0 0 0 0 0 0 0 0 0 0 0 0 0 0 0 0 0 0 0 0 0 0 0 0 0 0 0 0
3 3 3 0 3 3 3 3 3 3 3 3 3 3 3 3 3 0 0 0 0 0 0 0 0 0 0 0 0 0 0 0 0 0 0 0 0 0 0 0 0 0 0
Height
5863 5860 5858 5855 5853 5852 5850 5849 5847 5846 5844 5842 5841 5840 5838 5836 5835 5833 5831 5830 5828 5827 5826 5825 5825 5823 5822 5821 5821 5820 5820 5820 5820 5819 5819 5819 5819 5819 5819 5819 5820 5820 5820
5860 5858 5855 5853 5850 5848 5847 5845 5844 5842 5840 5839 5837 5835 5833 5832 5830 5828 5826 5825 5823 5822 5821 5820 5819 5817 5816 5815 5814 5814 5813 5813 5813 5813 5813 5812 5812 5812 5812 5812 5812 5812 5813
5857 5855 5852 5850 5847 5845 5843 5841 5840 5838 5836 5834 5832 5831 5829 5827 5825 5823 5821 5819 5818 5816 5815 5814 5812 5811 5810 5809 5808 5807 5807 5806 5806 5806 5806 5805 5805 5805 5805 5805 5805 5805 5805
5853 5851 5849 5846 5844 5842 5839 5838 5836 5834 5832 5830 5828 5825 5823 5821 5819 5817 5815 5814 5812 5810 5809 5807 5806 5805 5804 5802 5801 5800 5800 5799 5798 5798 5798 5798 5797 5797 5797 5796 5797 5797 5797
5849 5847 5845 5842 5840 5838 5836 5833 5831 5829 5827 5824 5822 5820 5818 5815 5813 5810 5809 5807 5805 5804 5802 5800 5799 5798 5796 5795 5794 5793 5792 5792 5791 5790 5790 5789 5789 5789 5789 5788 5788 5788 5789
5845 5843 5840 5838 5836 5833 5831 5829 5826 5824 5821 5819 5816 5814 5811 5809 5807 5804 5803 5801 5799 5797 5795 5793 5792 5790 5789 5787 5786 5785 5784 5783 5782 5782 5781 5781 5781 5781 5780 5780 5780 5780 5780
5840 5838 5835 5833 5830 5828 5826 5823 5821 5818 5816 5813 5810 5808 5806 5803 5800 5798 5796 5794 5793 5791 5788 5786 5785 5783 5782 5780 5778 5777 5775 5774 5774 5773 5773 5772 5772 5772 5772 5771 5771 5770 5771
5835 5833 5830 5827 5825 5822 5820 5817 5815 5813 5810 5807 5804 5802 5799 5797 5794 5792 5790 5788 5786 5784 5781 5779 5778 5776 5774 5772 5770 5768 5767 5766 5765 5764 5764 5763 5763 5762 5762 5762 5761 5761 5761
5830 5827 5825 5822 5819 5816 5814 5811 5809 5806 5803 5801 5798 5796 5793 5790 5788 5786 5783 5781 5779 5777 5774 5772 5770 5768 5766 5763 5761 5760 5758 5757 5756 5755 5755 5754 5753 5753 5753 5753 5752 5751 5751
5824 5821 5818 5815 5813 5810 5808 5805 5802 5799 5797 5794 5791 5789 5786 5784 5781 5779 5776 5774 5771 5769 5767 5764 5761 5759 5757 5755 5753 5751 5750 5748 5747 5747 5746 5745 5744 5743 5743 5742 5742 5741 5741
5817 5815 5812 5809 5807 5804 5801 5798 5795 5792 5790 5787 5785 5782 5779 5777 5774 5771 5769 5766 5764 5761 5758 5756 5753 5751 5748 5746 5744 5742 5741 5740 5739 5738 5737 5736 5735 5734 5733 5733 5732 5731 5731
5811 5808 5805 5803 5800 5797 5794 5791 5788 5786 5783 5780 5778 5775 5772 5770 5767 5764 5761 5758 5755 5753 5750 5747 5745 5742 5740 5738 5736 5734 5733 5731 5730 5729 5728 5727 5726 5725 5724 5723 5722 5721 5721
5804 5802 5799 5796 5793 5790 5787 5784 5782 5779 5776 5773 5770 5768 5765 5762 5759 5756 5753 5750 5747 5745 5742 5739 5736 5734 5731 5729 5728 5726 5724 5722 5721 5720 5719 5718 5717 5716 5715 5714 5713 5712 5711
5797 5795 5792 5789 5786 5782 5780 5777 5774 5772 5769 5766 5763 5760 5757 5754 5751 5748 5745 5742 5739 5736 5734 5731 5728 5725 5723 5720 5719 5717 5715 5714 5713 5711 5710 5708 5707 5706 5705 5705 5704 5703 5703
5790 5787 5784 5781 5778 5775 5772 5769 5766 5764 5760 5758 5755 5752 5749 5747 5744 5740 5737 5734 5731 5729 5726 5723 5720 5718 5715 5712 5710 5708 5707 5705 5704 5702 5701 5699 5698 5697 5696 5695 5695 5694 5694
5782 5779 5776 5773 5770 5767 5764 5761 5758 5755 5752 5749 5746 5743 5741 5738 5735 5732 5729 5726 5723 5720 5717 5715 5712 5709 5706 5704 5701 5699 5698 5696 5695 5693 5692 5691 5690 5688 5687 5686 5685 5684 5684
5775 5771 5768 5765 5762 5759 5756 5753 5750 5747 5743 5740 5737 5734 5732 5729 5726 5723 5720 5717 5714 5711 5709 5706 5703 5701 5698 5695 5693 5691 5689 5687 5686 5685 5683 5682 5681 5679 5678 5677 5676 5675 5675
5766 5763 5760 5757 5754 5750 5747 5744 5741 5738 5735 5732 5729 5725 5723 5720 5717 5715 5712 5709 5706 5703 5700 5698 5695 5692 5690 5687 5685 5683 5681 5679 5678 5676 5674 5673 5672 5670 5669 5668 5667 5666 5666
5758 5755 5751 5748 5745 5742 5739 5735 5732 5729 5726 5723 5720 5717 5714 5711 5709 5706 5703 5701 5698 5695 5692 5689 5687 5684 5682 5679 5677 5675 5673 5671 5669 5668 5666 5664 5663 5662 5660 5659 5658 5658 5657
5750 5746 5743 5739 5736 5733 5730 5727 5723 5720 5717 5715 5712 5709 5706 5704 5701 5698 5695 5692 5689 5687 5684 5681 5678 5676 5674 5671 5669 5667 5665 5663 5661 5659 5658 5656 5655 5653 5652 5651 5650 5649 5649
5742 5738 5734 5731 5727 5724 5721 5718 5715 5712 5709 5707 5704 5701 5698 5695 5693 5690 5687 5684 5681 5679 5676 5673 5670 5668 5665 5663 5660 5658 5656 5654 5652 5651 5649 5648 5646 5645 5644 5643 5642 5642 5641
5734 5730 5727 5723 5720 5716 5713 5710 5706 5703 5701 5698 5696 5693 5690 5687 5685 5682 5679 5676 5673 5671 5668 5665 5662 5659 5657 5654 5652 5650 5648 5646 5644 5642 5640 5639 5638 5637 5636 5635 5635 5634 5633
5726 5723 5720 5716 5712 5709 5705 5702 5699 5696 5693 5690 5688 5685 5682 5679 5677 5674 5671 5668 5665 5662 5659 5657 5654 5651 5648 5645 5643 5640 5639 5637 5635 5633 5632 5631 5630 5629 5628 5627 5627 5626 5626
5719 5716 5712 5709 5705 5702 5698 5695 5692 5689 5686 5683 5680 5677 5674 5671 5669 5666 5663 5660 5657 5654 5651 5648 5645 5643 5639 5636 5634 5631 5629 5627 5626 5624 5623 5622 5622 5621 5620 5619 5619 5618 5618
5712 5708 5705 5702 5698 5695 5691 5688 5685 5682 5679 5676 5672 5669 5666 5664 5661 5658 5655 5651 5648 5645 5643 5640 5637 5634 5631 5627 5624 5622 5620 5618 5617 5616 5614 5614 5613 5612 5611 5611 5610 5610 5610
5705 5701 5698 5695 5691 5688 5684 5681 5678 5675 5671 5668 5665 5662 5659 5656 5653 5650 5646 5643 5640 5637 5634 5631 5628 5625 5622 5619 5616 5613 5611 5609 5608 5606 5605 5605 5604 5603 5603 5602 5602 5602 5602
Wind_Speed
15 15 16 16 15 14 14 14 15 15 16 16 16 17 17 17 17 17 18 18 19 19 20 20 20 20 21 21 22 23 24 23 22 22 22 22 23 23 23 24 24 24 24
16 17 17 17 16 16 17 17 16 16 17 18 18 18 18 19 19 19 19 20 20 21 21 21 21 22 22 22 22 23 24 24 24 23 24 24 24 25 25 25 25 24 24
18 18 18 18 18 18 18 18 18 18 18 19 19 20 20 20 21 21 20 20 20 21 21 22 23 22 22 22 22 23 24 25 25 25 25 25 26 27 27 27 26 26 26
19 19 19 19 18 18 19 19 20 19 20 20 20 20 21 21 22 22 22 22 22 22 22 23 23 23 23 23 23 24 25 26 26 26 26 26 27 28 28 28 27 27 27
20 20 19 19 19 20 20 20 21 21 21 21 22 22 23 23 23 23 22 22 22 23 23 23 24 24 24 25 25 25 26 27 27 27 27 27 28 28 28 28 28 28 28
21 21 21 21 20 21 22 22 22 22 22 22 23 24 24 24 24 23 23 23 23 23 24 24 24 25 25 25 26 27 28 28 28 27 27 27 28 28 29 29 30 29 29
22 22 22 22 23 23 23 23 23 23 23 24 24 25 25 25 24 24 24 24 24 24 24 24 25 26 26 26 27 28 28 28 28 28 28 28 28 29 29 30 30 30 30
23 23 24 24 23 24 24 24 24 25 25 25 25 26 26 25 25 24 25 24 24 24 24 25 25 26 27 27 27 27 27 27 27 28 29 29 29 30 30 30 30 30 31
24 24 25 25 24 25 26 26 26 26 26 26 27 26 26 26 26 25 26 26 26 26 26 27 27 27 28 28 28 28 27 27 28 28 29 29 29 30 30 30 30 30 30
24 25 25 26 26 26 26 27 27 27 27 27 27 27 27 27 27 27 27 27 27 28 28 28 29 29 29 29 28 28 27 27 28 28 28 29 30 29 29 30 31 31 31
25 26 26 27 27 27 28 27 27 27 27 27 27 27 27 27 27 27 27 28 28 28 28 28 29 29 28 29 28 27 26 26 27 28 29 30 30 29 29 30 30 31 32
26 26 27 28 28 28 28 28 27 27 27 28 27 27 27 27 28 28 28 29 29 29 29 29 28 28 29 29 28 28 27 27 27 27 27 28 29 29 30 30 31 31 32
27 27 28 28 29 29 29 28 28 28 28 28 28 28 29 29 29 29 29 30 29 29 29 29 29 29 29 28 28 28 27 27 28 28 28 29 29 30 30 31 31 30 31
28 29 29 30 29 29 29 29 28 29 29 29 29 29 29 29 29 30 30 30 30 30 30 29 29 29 29 28 28 28 28 28 28 28 28 29 29 30 30 30 30 30 30
30 30 30 30 29 29 29 29 29 30 30 31 30 30 30 30 30 31 31 31 30 29 29 29 29 29 30 29 28 28 28 28 27 28 28 28 28 29 29 29 29 29 29
31 30 30 29 29 29 29 30 30 30 31 31 31 31 30 30 30 31 31 31 30 30 30 29 28 28 28 27 27 27 27 27 27 27 27 27 27 27 28 29 29 29 29
31 31 31 31 31 31 30 31 31 31 31 32 32 31 30 30 31 31 31 31 31 30 30 30 29 28 28 27 26 26 26 26 26 26 27 27 27 27 27 27 28 28 28
31 31 32 32 32 31 32 32 32 31 31 31 32 31 30 30 31 31 31 31 30 30 29 29 28 28 27 27 26 25 25 25 25 26 26 26 26 27 27 26 26 27 27
32 32 32 32 31 31 32 32 32 32 31 31 31 30 29 30 30 30 30 30 29 29 28 28 27 27 26 26 26 25 25 25 25 25 25 25 26 26 26 26 26 25 25
31 32 32 31 31 31 32 32 32 31 30 30 29 29 29 29 29 29 29 29 29 28 28 27 27 26 26 26 25 26 26 26 26 26 25 25 26 26 26 26 25 24 23
31 31 31 31 31 31 31 31 30 30 30 29 29 29 29 28 28 28 28 27 27 26 26 26 26 26 26 26 26 26 26 26 26 26 26 25 25 25 25 24 24 23 23
30 29 29 29 29 30 30 29 29 28 28 28 28 28 28 28 27 27 27 27 26 26 26 26 26 26 26 26 27 26 25 25 25 26 26 25 25 24 23 23 23 23 23
28 28 28 28 28 28 27 27 27 27 27 27 27 28 28 27 27 27 27 27 27 27 26 26 26 26 27 27 27 26 25 25 25 25 25 24 24 23 23 23 23 23 23
28 28 28 29 28 28 28 28 27 27 27 27 27 27 27 27 26 26 27 27 27 27 27 27 27 27 28 28 28 27 26 25 26 26 25 24 24 24 24 23 23 22 23
27 28 29 29 28 28 28 27 26 26 26 26 26 26 26 26 26 27 27 27 26 27 27 27 28 28 28 28 27 27 27 26 26 26 25 25 25 24 24 23 23 22 22
27 27 27 27 27 27 27 27 26 26 26 26 26 26 26 26 26 26 26 26 26 27 27 27 28 28 28 28 27 27 27 27 26 26 25 25 24 24 23 23 22 22 22
Wind_Direction
322 322 324 320 315 314 311 308 306 303 301 300 300 299 299 298 297 295 292 290 287 285 286 285 284 282 279 277 275 272 270 269 270 268 268 268 268 267 268 269 269 269 267
318 317 317 316 313 310 306 304 304 303 301 300 299 298 297 296 294 292 291 288 286 284 284 284 284 283 280 277 275 272 271 270 269 269 269 268 269 268 267 268 268 268 267
318 314 314 311 309 308 305 305 302 300 299 300 300 299 297 295 294 292 291 289 286 285 285 283 282 281 280 277 276 274 272 272 271 269 268 267 267 269 268 267 267 267 267
316 315 313 311 308 308 307 304 303 300 299 298 298 298 298 297 294 292 291 289 287 285 283 283 281 280 279 277 276 275 274 274 274 272 269 268 268 268 269 268 268 268 269
313 313 312 310 309 307 307 306 304 301 300 300 298 297 297 298 296 294 293 292 289 288 287 286 283 280 280 278 277 276 275 276 276 274 272 270 269 269 269 269 269 268 267
311 311 309 307 306 305 305 306 306 305 303 302 300 300 301 301 300 297 295 293 293 291 290 288 285 283 283 281 279 279 278 278 277 276 274 272 270 270 269 269 270 270 269
310 309 307 306 304 305 305 305 306 306 305 305 304 302 302 302 300 298 296 294 292 292 292 292 289 288 287 285 284 282 278 277 275 274 274 273 272 272 271 271 270 271 271
308 308 307 305 304 305 307 307 305 304 303 303 304 303 302 301 299 297 295 294 293 293 293 293 291 289 287 287 287 282 279 277 275 275 275 274 273 273 272 272 272 271 272
305 304 305 306 307 307 306 306 305 303 302 302 301 301 300 300 298 296 295 295 294 293 293 292 290 288 288 287 287 284 281 277 275 274 275 274 274 273 274 274 274 273 273
306 306 307 307 307 306 305 305 303 302 302 303 303 302 301 300 298 297 295 295 293 293 292 291 289 288 288 287 286 285 283 279 274 273 274 275 275 276 278 277 276 273 272
307 307 306 306 306 305 304 303 302 302 303 304 303 302 301 301 301 300 297 295 295 295 294 293 290 289 289 288 286 284 282 281 276 275 276 277 276 276 277 278 277 276 274
307 307 306 305 305 304 304 303 303 303 303 303 303 301 301 301 300 298 298 298 297 296 296 296 293 291 291 288 284 282 282 281 279 278 279 279 279 278 277 277 277 277 276
306 306 306 305 304 303 303 303 302 302 302 302 302 301 300 300 300 301 301 301 299 297 297 297 296 295 293 289 286 284 283 282 281 280 279 279 279 278 278 278 277 278 278
305 305 304 303 303 302 301 301 301 301 301 301 301 302 301 301 301 301 301 301 299 298 296 297 297 295 293 289 285 284 284 283 283 282 282 281 280 279 279 278 277 276 277
304 304 303 302 302 300 300 300 301 301 301 301 301 301 301 301 300 300 300 299 298 298 299 299 297 295 294 291 287 285 283 283 283 284 285 283 281 280 280 279 278 277 277
304 304 303 301 301 301 300 300 300 300 300 300 300 300 299 300 300 300 299 298 297 297 298 298 299 298 297 294 291 287 285 283 283 284 285 285 284 283 282 281 279 278 276
303 303 302 301 300 300 300 301 300 299 300 300 301 299 298 298 299 299 300 300 298 298 298 297 297 298 298 296 293 289 287 285 284 285 284 285 285 284 284 283 281 279 278
303 303 302 300 299 300 300 301 300 300 300 300 301 300 298 297 298 300 300 300 300 300 300 299 299 299 299 297 294 293 291 289 288 287 286 286 286 286 285 283 281 280 279
303 302 301 300 299 301 301 301 301 300 301 301 302 301 300 299 300 301 301 300 299 299 300 301 300 299 299 297 295 293 291 290 290 288 288 289 289 288 287 286 283 281 278
304 303 302 301 300 301 301 301 300 300 300 301 301 301 300 300 300 300 300 300 300 299 299 299 299 299 298 297 295 293 292 290 290 289 289 289 288 287 287 286 285 282 279
304 304 303 302 301 301 302 301 300 299 299 299 300 300 300 299 300 301 302 301 300 300 300 300 300 300 298 296 294 293 292 292 291 290 289 288 287 288 286 285 284 283 280
303 303 303 303 302 302 302 303 303 302 301 301 301 301 301 300 300 301 302 302 301 300 301 302 301 300 300 297 295 293 293 292 291 291 289 287 286 286 285 284 284 282 278
304 304 304 305 305 305 305 305 304 303 302 301 301 301 301 301 301 301 302 302 302 301 301 302 302 302 301 299 297 295 293 292 291 290 288 286 286 286 285 284 283 280 276
304 306 306 307 307 307 306 305 305 304 303 304 303 302 302 302 302 302 302 302 302 301 301 302 303 303 303 301 299 297 295 294 292 290 288 285 285 285 285 284 282 279 276
304 306 307 308 308 307 307 306 305 304 304 306 306 305 304 303 302 302 303 303 302 301 301 303 303 303 304 303 299 296 295 294 291 289 286 285 285 285 284 283 280 278 276
305 307 308 309 310 309 309 308 307 306 305 306 307 307 306 305 304 304 305 304 303 302 303 304 305 304 304 303 300 297 295 293 291 288 286 285 286 285 284 283 281 278 276